Location: Herksen
(52.4316°N, 6.1319°E)
Time: 11:36:59
(UTC+00:00)

Helios 1A Rocket - Pass Details

Date: 15 May 2026
Orbit: 400 x 409 km, 98.3° (Epoch: 9 June)

Event Time Altitude Azimuth Distance (km) Brightness Sun altitude
Rises 20:08:01 0° 13° (NNE) 2,344 6.5 -6.0°
Reaches altitude 10° 20:10:02 10° 11° (N) 1,475 5.5 -6.2°
Maximum altitude 20:13:09 70° 288° (WNW) 436 2.5 -6.6°
Drops below altitude 10° 20:16:14 10° 204° (SSW) 1,454 4.8 -6.9°
Sets 20:18:12 0° 202° (SSW) 2,306 5.8 -7.1°
